• In Kazakhstan
  • List of Countries
  • For 7 days
  • Water Temperature
  • Satellite Maps
  • Weather Map
  • News
  • Weather Widgets
  • user-avatar
    Login

    Hourly Weather Gaziantep

    Today, 19 August, Saturday

    Time Temperature Precipitation Wind Pressure Humidity
    00:00 +22°C° 0 mm 3 mps 670 mmHg 73%
    01:00 +21°C° 0 mm 3 mps 670 mmHg 75%
    02:00 +21°C° 0 mm 3 mps 670 mmHg 77%
    03:00 +21°C° 0 mm 2 mps 670 mmHg 78%
    04:00 +20°C° 0 mm 2 mps 670 mmHg 80%
    05:00 +20°C° 0 mm 2 mps 670 mmHg 81%
    06:00 +23°C° 0 mm 2 mps 670 mmHg 74%
    07:00 +24°C° 0 mm 2 mps 671 mmHg 67%
    08:00 +25°C° 0 mm 2 mps 672 mmHg 60%
    09:00 +27°C° 0 mm 2 mps 672 mmHg 52%
    10:00 +29°C° 0 mm 2 mps 672 mmHg 43%
    11:00 +31°C° 0 mm 2 mps 672 mmHg 35%
    12:00 +33°C° 0 mm 3 mps 672 mmHg 32%
    13:00 +34°C° 0 mm 3 mps 673 mmHg 28%
    14:00 +35°C° 0 mm 4 mps 673 mmHg 24%
    15:00 +34°C° 0 mm 5 mps 672 mmHg 27%
    16:00 +33°C° 0 mm 5 mps 672 mmHg 30%
    17:00 +33°C° 0 mm 5 mps 672 mmHg 33%
    18:00 +30°C° 0 mm 5 mps 671 mmHg 41%
    19:00 +28°C° 0 mm 4 mps 671 mmHg 49%
    20:00 +26°C° 0 mm 4 mps 671 mmHg 58%
    21:00 +26°C° 0 mm 3 mps 671 mmHg 63%
    22:00 +25°C° 0 mm 3 mps 671 mmHg 67%
    23:00 +24°C° 0 mm 3 mps 671 mmHg 72%

    Tomorrow, 20 August, Sunday

    Time Temperature Precipitation Wind Pressure Humidity
    00:00 +22°C° 0 mm 3 mps 671 mmHg 75%
    01:00 +22°C° 0 mm 3 mps 670 mmHg 78%
    02:00 +21°C° 0 mm 2 mps 670 mmHg 81%
    03:00 +20°C° 0 mm 2 mps 670 mmHg 82%
    04:00 +20°C° 0 mm 2 mps 670 mmHg 84%
    05:00 +20°C° 0 mm 2 mps 670 mmHg 85%
    06:00 +21°C° 0 mm 2 mps 670 mmHg 75%
    07:00 +24°C° 0 mm 2 mps 671 mmHg 65%
    08:00 +26°C° 0 mm 2 mps 671 mmHg 55%
    09:00 +28°C° 0 mm 2 mps 672 mmHg 45%
    10:00 +30°C° 0 mm 2 mps 672 mmHg 36%
    11:00 +32°C° 0 mm 2 mps 672 mmHg 26%
    12:00 +34°C° 0 mm 3 mps 672 mmHg 24%
    13:00 +35°C° 0 mm 4 mps 672 mmHg 21%
    14:00 +36°C° 0 mm 4 mps 672 mmHg 19%
    15:00 +35°C° 0 mm 5 mps 671 mmHg 21%
    16:00 +34°C° 0 mm 5 mps 671 mmHg 23%
    17:00 +34°C° 0 mm 5 mps 671 mmHg 25%
    18:00 +32°C° 0 mm 4 mps 671 mmHg 32%
    19:00 +29°C° 0 mm 4 mps 670 mmHg 40%
    20:00 +27°C° 0 mm 3 mps 670 mmHg 47%
    21:00 +26°C° 0 mm 3 mps 670 mmHg 52%
    22:00 +25°C° 0 mm 3 mps 670 mmHg 57%
    23:00 +24°C° 0 mm 2 mps 670 mmHg 62%

    Day after tomorrow, 21 August, Monday

    Time Temperature Precipitation Wind Pressure Humidity
    00:00 +24°C° 0 mm 2 mps 670 mmHg 64%
    01:00 +23°C° 0 mm 2 mps 669 mmHg 66%
    02:00 +21°C° 0 mm 2 mps 669 mmHg 69%
    03:00 +21°C° 0 mm 2 mps 669 mmHg 69%
    04:00 +21°C° 0 mm 2 mps 669 mmHg 69%
    05:00 +20°C° 0 mm 2 mps 669 mmHg 69%
    06:00 +23°C° 0 mm 2 mps 669 mmHg 59%
    07:00 +25°C° 0 mm 2 mps 670 mmHg 49%
    08:00 +27°C° 0 mm 2 mps 671 mmHg 39%
    09:00 +29°C° 0 mm 3 mps 671 mmHg 33%
    10:00 +31°C° 0 mm 3 mps 671 mmHg 28%
    11:00 +34°C° 0 mm 4 mps 672 mmHg 22%
    12:00 +34°C° 0 mm 4 mps 672 mmHg 21%
    13:00 +35°C° 0 mm 5 mps 671 mmHg 21%
    14:00 +36°C° 0 mm 6 mps 671 mmHg 20%
    15:00 +35°C° 0 mm 6 mps 671 mmHg 21%
    16:00 +34°C° 0 mm 6 mps 670 mmHg 22%
    17:00 +33°C° 0 mm 6 mps 670 mmHg 23%
    18:00 +30°C° 0 mm 5 mps 670 mmHg 29%
    19:00 +28°C° 0 mm 4 mps 670 mmHg 35%
    20:00 +26°C° 0 mm 3 mps 670 mmHg 40%
    21:00 +25°C° 0 mm 3 mps 670 mmHg 46%
    22:00 +24°C° 0 mm 3 mps 670 mmHg 51%
    23:00 +22°C° 0 mm 3 mps 669 mmHg 57%

    22 August, Tuesday

    Time Temperature Precipitation Wind Pressure Humidity
    00:00 +21°C° 0 mm 3 mps 669 mmHg 61%
    01:00 +21°C° 0 mm 2 mps 669 mmHg 65%
    02:00 +20°C° 0 mm 2 mps 669 mmHg 69%
    03:00 +20°C° 0 mm 2 mps 669 mmHg 71%
    04:00 +19°C° 0 mm 2 mps 669 mmHg 74%
    05:00 +19°C° 0 mm 2 mps 668 mmHg 76%
    06:00 +20°C° 0 mm 2 mps 669 mmHg 66%
    07:00 +22°C° 0 mm 3 mps 670 mmHg 56%
    08:00 +25°C° 0 mm 3 mps 670 mmHg 45%
    09:00 +27°C° 0 mm 3 mps 670 mmHg 38%
    10:00 +29°C° 0 mm 3 mps 671 mmHg 30%
    11:00 +31°C° 0 mm 3 mps 671 mmHg 22%
    12:00 +33°C° 0 mm 3 mps 671 mmHg 21%
    13:00 +34°C° 0 mm 4 mps 671 mmHg 19%
    14:00 +35°C° 0 mm 4 mps 670 mmHg 18%
    15:00 +34°C° 0 mm 4 mps 670 mmHg 21%
    16:00 +33°C° 0 mm 5 mps 670 mmHg 24%
    17:00 +32°C° 0 mm 5 mps 669 mmHg 27%
    18:00 +29°C° 0 mm 5 mps 669 mmHg 35%
    19:00 +28°C° 0 mm 4 mps 669 mmHg 43%
    20:00 +26°C° 0 mm 4 mps 669 mmHg 51%
    21:00 +25°C° 0 mm 3 mps 669 mmHg 56%
    22:00 +24°C° 0 mm 3 mps 669 mmHg 60%
    23:00 +22°C° 0 mm 3 mps 668 mmHg 65%

    23 August, Wednesday

    Time Temperature Precipitation Wind Pressure Humidity
    00:00 +22°C° 0 mm 3 mps 668 mmHg 67%
    01:00 +21°C° 0 mm 3 mps 668 mmHg 69%
    02:00 +21°C° 0 mm 3 mps 668 mmHg 71%
    03:00 +20°C° 0 mm 2 mps 668 mmHg 73%
    04:00 +20°C° 0 mm 2 mps 668 mmHg 74%
    05:00 +20°C° 0 mm 2 mps 668 mmHg 76%
    06:00 +23°C° 0 mm 2 mps 669 mmHg 68%
    07:00 +25°C° 0 mm 2 mps 669 mmHg 60%
    08:00 +27°C° 0 mm 3 mps 670 mmHg 52%
    09:00 +29°C° 0 mm 2 mps 670 mmHg 44%
    10:00 +31°C° 0 mm 2 mps 671 mmHg 36%
    11:00 +34°C° 0 mm 2 mps 671 mmHg 28%
    12:00 +35°C° 0 mm 2 mps 671 mmHg 25%
    13:00 +35°C° 0 mm 2 mps 671 mmHg 22%
    14:00 +36°C° 0 mm 2 mps 671 mmHg 19%
    15:00 +36°C° 0 mm 3 mps 671 mmHg 21%
    16:00 +36°C° 0 mm 3 mps 670 mmHg 23%
    17:00 +35°C° 0 mm 4 mps 670 mmHg 25%
    18:00 +33°C° 0 mm 3 mps 670 mmHg 34%
    19:00 +30°C° 0 mm 3 mps 670 mmHg 42%
    20:00 +28°C° 0 mm 3 mps 670 mmHg 51%
    21:00 +28°C° 0 mm 3 mps 670 mmHg 55%
    22:00 +27°C° 0 mm 2 mps 670 mmHg 60%
    23:00 +26°C° 0 mm 2 mps 670 mmHg 65%

    24 August, Thursday

    Time Temperature Precipitation Wind Pressure Humidity
    00:00 +25°C° 0 mm 2 mps 669 mmHg 67%
    01:00 +25°C° 0 mm 2 mps 669 mmHg 69%
    02:00 +24°C° 0 mm 2 mps 669 mmHg 72%
    03:00 +24°C° 0 mm 2 mps 669 mmHg 72%
    04:00 +24°C° 0 mm 2 mps 669 mmHg 72%
    05:00 +23°C° 0 mm 2 mps 669 mmHg 73%
    06:00 +25°C° 0 mm 2 mps 670 mmHg 63%
    07:00 +27°C° 0 mm 2 mps 671 mmHg 54%
    08:00 +29°C° 0 mm 1 mps 671 mmHg 44%
    09:00 +31°C° 0 mm 1 mps 672 mmHg 37%
    10:00 +33°C° 0 mm 1 mps 672 mmHg 29%
    11:00 +35°C° 0 mm 1 mps 672 mmHg 22%
    12:00 +37°C° 0 mm 2 mps 672 mmHg 19%
    13:00 +37°C° 0 mm 2 mps 672 mmHg 17%
    14:00 +38°C° 0 mm 3 mps 672 mmHg 15%
    15:00 +38°C° 0 mm 3 mps 672 mmHg 16%
    16:00 +37°C° 0 mm 4 mps 671 mmHg 17%
    17:00 +37°C° 0 mm 4 mps 671 mmHg 19%
    18:00 +35°C° 0 mm 4 mps 671 mmHg 25%
    19:00 +33°C° 0 mm 3 mps 671 mmHg 31%
    20:00 +30°C° 0 mm 2 mps 671 mmHg 37%
    21:00 +29°C° 0 mm 2 mps 670 mmHg 41%
    22:00 +28°C° 0 mm 2 mps 670 mmHg 45%
    23:00 +27°C° 0 mm 2 mps 670 mmHg 50%
    Show more